Terminal Aerodrome Forecast
Issued by NWS

Home | Current Version | Previous Version | Text Only | Print | Product List | Glossary On
Versions: 1 2 3 4 5 6 7 8 9 10 11 12 13 14 15 16 17 18 19 20 21 22 23 24
000
FTUS46 KLOX 192300 RRA
TAFLAX
TAF
KLAX 192340Z 2000/2106 26011KT P6SM SCT150 BKN200
     FM200400 VRB03KT P6SM SCT200
     FM200900 VRB03KT 6SM BR BKN008
     FM201300 VRB03KT P6SM BKN012
     FM201700 26006KT P6SM SCT015
     FM202000 26012KT P6SM SKC
     FM210200 25009KT P6SM SKC
     FM210500 VRB03KT P6SM SKC=

USA.gov is the U.S. government's official web portal to all federal, state and local government web resources and services.